Location: Dunedin
(45.8670°S, 170.5000°E)
Time: 00:34:51
(UTC+13:00)

COSMOS 2428 - Pass Details

Date: 24 January 2019
Orbit: 845 x 856 km, 71.0° (Epoch: 22 February)

Event Time Altitude Azimuth Distance (km) Brightness Sun altitude
Exits shadow 23:03:03 21° 51° (NE) 1,821 3.8 -14.7°
Maximum altitude 23:04:52 25° 78° (ENE) 1,670 3.8 -14.9°
Drops below altitude 10° 23:09:28 10° 131° (SE) 2,517 5.2 -15.4°
Sets 23:12:20 0° 143° (SE) 3,463 6.1 -15.8°
